DELTA 1 DEB, 29185

Orbit data source: Space-Track

DELTA 1 DEB, 29185 is space debris in LEO originally from a launch on Thu, 11 Jan 1968 UTC launched from the Air Force Western Test Range (AFWTR). Debris objects in space refer to the collection of defunct objects orbiting the Earth. Examples of debris include non-operational satellites, rocket bodies, and fragments generated from explosions, collisions, or faulty payload assembly.

Loading next visibility...
DELTA 1 DEB details
Identifier
29185, 1968-002J
Orbit
LEO
Last TLE update1 week ago
Origin
Flag of USGSFC (US)
ManufacturerUnknown
MissionSpacecraft
Bus & MotorUnknown
MassUnknown
Launch date (UTC)
1968-01-11 (57 years ago)
Launch vehicleUnknown
Launch site
Air Force Western Test Range (AFWTR)
Object type
Payload
Rocket body
Debris
Shape & HBRUnknown
Radar Cross SectionSmall (<0.1 m²)

Expand to show TLE details & history

TLE from 1 week ago
0 DELTA 1 DEB
1 29185U 68002J   24342.03070170  .00000877  00000-0  20829-2 0  9999
2 29185 105.7885 257.9091 0238430 187.2321 172.5303 13.19170104393607
Epoch: 2024-12-07T00:44Z
Definitive object data (Epoch: 2024-12-07T00:44:12.626Z)
Latitude-0°
Longitude170.56785°
Altitude1,369.333 km
Speed7.089 km/s
True Right ascension17h 11m 38s
True Declination0° 00' 00"
Sunlit
Object was in daylight at TLE epoch
Visualization TLE readout
Latitude-5.58606°
Longitude-178.01903°
Altitude1,371.563 km
Speed7.087 km/s
Apparent Right ascension20h 29m 28s
Apparent Declination-33° 35' 35"
Sunlit
Object is in daylight
Visualization observer readout
Local Sidereal Time13:33:31
Azimuth110.062° ESE
Elevation-30.627°
Doppler factor1
Orbital elements
Apogee altitude1,365.974 km
Perigee altitude1,005.288 km
Semi-major axis7,563.768 km
Eccentricity0.023843
Inclination105.7885°
RAAN257.9091°
Arg. of periapsis187.2321°
True anomaly172.87528°
Mean anomaly172.5303°
Eccentric anomaly172.70379°
Mean motion3.29941 °/min
BSTAR0.0020829
Orbital period109.11 mins
Loading maneuver chart data...
Loading historical data...
Loading historical data...
Loading historical data...
Loading historical data...
Loading historical data...
Loading historical data...
Loading historical data...

DELTA 1 DEB Visibility forecast

Observer location: undefined°, undefined

Span
Click to sort rows by Start time (UTC) header in descending order
Start Az.
Max El. time (UTC)
Max El. Az.
Max El.
End time (UTC)
End Az.
12 mins2024-12-13 17:02:50.128Z112.485° ESE2024-12-13 17:08:50.128Z61.042° ENE27.982°2024-12-13 17:14:50.128Z358.768° N
13 mins2024-12-13 18:49:50.128Z175.4° S2024-12-13 18:55:50.128Z258.618° W40.976°2024-12-13 19:02:50.128Z329.831° NNW
11 mins2024-12-14 08:04:50.128Z25.455° NE2024-12-14 08:09:50.128Z101.254° ESE44.692°2024-12-14 08:15:50.128Z200.446° SSW
7 mins2024-12-14 09:52:50.128Z344.646° N2024-12-14 09:55:50.128Z312.623° NW18.44°2024-12-14 09:59:50.128Z271.132° WNW
|